Hourly Weather Barnstaple

Today, 8 May, Saturday

Time Temperature Precipitation Wind Pressure Humidity
00:00 +5°C° 0 mm 9 mps 749 mmHg 96%
01:00 +6°C° 2.1 mm 9 mps 748 mmHg 96%
02:00 +7°C° 2.1 mm 9 mps 746 mmHg 97%
03:00 +8°C° 2.1 mm 9 mps 745 mmHg 97%
04:00 +9°C° 1.6 mm 10 mps 744 mmHg 97%
05:00 +9°C° 1.6 mm 10 mps 743 mmHg 97%
06:00 +11°C° 0 mm 11 mps 743 mmHg 97%
07:00 +11°C° 0.3 mm 11 mps 743 mmHg 96%
08:00 +11°C° 0.3 mm 10 mps 743 mmHg 96%
09:00 +11°C° 0.3 mm 10 mps 743 mmHg 96%
10:00 +11°C° 0.5 mm 10 mps 743 mmHg 96%
11:00 +11°C° 0.5 mm 10 mps 743 mmHg 96%
12:00 +11°C° 0.5 mm 10 mps 743 mmHg 96%
13:00 +12°C° 0.3 mm 10 mps 743 mmHg 96%
14:00 +12°C° 0.3 mm 10 mps 742 mmHg 95%
15:00 +12°C° 0.3 mm 11 mps 742 mmHg 94%
16:00 +12°C° 0.2 mm 11 mps 742 mmHg 94%
17:00 +12°C° 0.2 mm 11 mps 742 mmHg 94%
18:00 +12°C° 0.2 mm 11 mps 741 mmHg 93%
19:00 +12°C° 0.3 mm 10 mps 741 mmHg 93%
20:00 +11°C° 0.3 mm 10 mps 741 mmHg 93%
21:00 +11°C° 0.3 mm 10 mps 740 mmHg 93%
22:00 +11°C° 0.6 mm 9 mps 740 mmHg 94%
23:00 +11°C° 0.6 mm 9 mps 740 mmHg 95%

Tomorrow, 9 May, Sunday

Time Temperature Precipitation Wind Pressure Humidity
00:00 +11°C° 0.6 mm 8 mps 739 mmHg 96%
01:00 +11°C° 0.7 mm 7 mps 739 mmHg 94%
02:00 +10°C° 0.7 mm 6 mps 739 mmHg 93%
03:00 +10°C° 0.7 mm 4 mps 738 mmHg 92%
04:00 +9°C° 0 mm 5 mps 738 mmHg 91%
05:00 +9°C° 0 mm 6 mps 739 mmHg 90%
06:00 +9°C° 0 mm 6 mps 739 mmHg 89%
07:00 +9°C° 0 mm 7 mps 739 mmHg 87%
08:00 +10°C° 0 mm 8 mps 739 mmHg 85%
09:00 +11°C° 0 mm 8 mps 739 mmHg 82%
10:00 +11°C° 0.1 mm 9 mps 739 mmHg 79%
11:00 +12°C° 0.1 mm 9 mps 739 mmHg 76%
12:00 +13°C° 0.1 mm 9 mps 738 mmHg 72%
13:00 +13°C° 0.1 mm 9 mps 739 mmHg 73%
14:00 +13°C° 0.1 mm 9 mps 739 mmHg 73%
15:00 +13°C° 0.1 mm 9 mps 739 mmHg 73%
16:00 +12°C° 0 mm 9 mps 738 mmHg 77%
17:00 +11°C° 0 mm 8 mps 738 mmHg 80%
18:00 +11°C° 0 mm 8 mps 738 mmHg 83%
19:00 +10°C° 0 mm 8 mps 738 mmHg 85%
20:00 +9°C° 0 mm 8 mps 738 mmHg 87%
21:00 +9°C° 0 mm 8 mps 738 mmHg 89%
22:00 +9°C° 0 mm 8 mps 738 mmHg 86%
23:00 +9°C° 0 mm 8 mps 738 mmHg 83%

Day after tomorrow, 10 May, Monday

Time Temperature Precipitation Wind Pressure Humidity
00:00 +9°C° 0 mm 8 mps 738 mmHg 80%
01:00 +9°C° 0 mm 8 mps 738 mmHg 80%
02:00 +9°C° 0 mm 8 mps 738 mmHg 80%
03:00 +9°C° 0 mm 8 mps 738 mmHg 80%
04:00 +9°C° 0 mm 8 mps 738 mmHg 81%
05:00 +8°C° 0 mm 9 mps 738 mmHg 81%
06:00 +8°C° 0 mm 9 mps 738 mmHg 82%
07:00 +8°C° 0.1 mm 9 mps 739 mmHg 84%
08:00 +10°C° 0.1 mm 9 mps 739 mmHg 86%
09:00 +10°C° 0.1 mm 9 mps 739 mmHg 88%
10:00 +10°C° 0.4 mm 9 mps 740 mmHg 88%
11:00 +10°C° 0.4 mm 9 mps 741 mmHg 88%
12:00 +9°C° 0.4 mm 10 mps 741 mmHg 88%
13:00 +10°C° 0.3 mm 9 mps 742 mmHg 86%
14:00 +10°C° 0.3 mm 9 mps 743 mmHg 84%
15:00 +10°C° 0.3 mm 8 mps 743 mmHg 82%
16:00 +10°C° 0 mm 7 mps 743 mmHg 82%
17:00 +10°C° 0 mm 6 mps 744 mmHg 81%
18:00 +9°C° 0 mm 5 mps 744 mmHg 81%
19:00 +8°C° 0 mm 5 mps 744 mmHg 85%
20:00 +7°C° 0 mm 5 mps 745 mmHg 90%
21:00 +6°C° 0 mm 4 mps 745 mmHg 94%
22:00 +5°C° 0 mm 5 mps 745 mmHg 94%
23:00 +5°C° 0 mm 5 mps 745 mmHg 94%

11 May, Tuesday

Time Temperature Precipitation Wind Pressure Humidity
00:00 +5°C° 0 mm 5 mps 745 mmHg 94%
01:00 +5°C° 0 mm 5 mps 745 mmHg 94%
02:00 +3°C° 0 mm 5 mps 745 mmHg 94%
03:00 +3°C° 0 mm 5 mps 745 mmHg 95%
04:00 +4°C° 0 mm 4 mps 745 mmHg 95%
05:00 +5°C° 0 mm 4 mps 745 mmHg 94%
06:00 +5°C° 0 mm 4 mps 745 mmHg 94%
07:00 +6°C° 0 mm 5 mps 745 mmHg 88%
08:00 +8°C° 0 mm 6 mps 745 mmHg 83%
09:00 +9°C° 0 mm 7 mps 745 mmHg 77%
10:00 +9°C° 0.2 mm 6 mps 744 mmHg 81%
11:00 +8°C° 0.2 mm 6 mps 744 mmHg 85%
12:00 +8°C° 0.2 mm 6 mps 744 mmHg 89%
13:00 +9°C° 0.1 mm 6 mps 744 mmHg 85%
14:00 +10°C° 0.1 mm 6 mps 744 mmHg 80%
15:00 +11°C° 0.1 mm 6 mps 744 mmHg 76%
16:00 +10°C° 0.2 mm 7 mps 745 mmHg 81%
17:00 +10°C° 0.2 mm 8 mps 745 mmHg 86%
18:00 +10°C° 0.2 mm 8 mps 745 mmHg 92%
19:00 +8°C° 0.1 mm 9 mps 746 mmHg 91%
20:00 +8°C° 0.1 mm 9 mps 746 mmHg 90%
21:00 +7°C° 0.1 mm 9 mps 747 mmHg 90%
22:00 +7°C° 0 mm 10 mps 747 mmHg 88%
23:00 +7°C° 0 mm 10 mps 747 mmHg 87%

12 May, Wednesday

Time Temperature Precipitation Wind Pressure Humidity
00:00 +7°C° 0 mm 11 mps 747 mmHg 85%
01:00 +7°C° 0.1 mm 10 mps 747 mmHg 87%
02:00 +7°C° 0.1 mm 9 mps 747 mmHg 88%
03:00 +7°C° 0.1 mm 8 mps 747 mmHg 89%
04:00 +8°C° 0.2 mm 7 mps 747 mmHg 91%
05:00 +8°C° 0.2 mm 6 mps 748 mmHg 92%
06:00 +7°C° 0.2 mm 5 mps 748 mmHg 93%
07:00 +8°C° 0.5 mm 5 mps 748 mmHg 92%
08:00 +8°C° 0.5 mm 5 mps 749 mmHg 90%
09:00 +9°C° 0.5 mm 6 mps 749 mmHg 88%
10:00 +9°C° 0.3 mm 5 mps 749 mmHg 87%
11:00 +9°C° 0.3 mm 5 mps 749 mmHg 86%
12:00 +10°C° 0.3 mm 5 mps 749 mmHg 86%
13:00 +10°C° 0.2 mm 5 mps 749 mmHg 85%
14:00 +10°C° 0.2 mm 5 mps 749 mmHg 83%
15:00 +12°C° 0.2 mm 5 mps 749 mmHg 82%
16:00 +10°C° 0.3 mm 5 mps 749 mmHg 84%
17:00 +10°C° 0.3 mm 5 mps 749 mmHg 86%
18:00 +11°C° 0.3 mm 4 mps 749 mmHg 88%
19:00 +8°C° 0.1 mm 4 mps 749 mmHg 90%
20:00 +8°C° 0.1 mm 3 mps 750 mmHg 92%
21:00 +7°C° 0.1 mm 3 mps 750 mmHg 94%
22:00 +5°C° 0 mm 3 mps 750 mmHg 94%
23:00 +5°C° 0 mm 3 mps 750 mmHg 94%

13 May, Thursday

Time Temperature Precipitation Wind Pressure Humidity
00:00 +5°C° 0 mm 3 mps 750 mmHg 94%
01:00 +5°C° 0 mm 3 mps 750 mmHg 94%
02:00 +5°C° 0 mm 3 mps 750 mmHg 94%
03:00 +5°C° 0 mm 3 mps 749 mmHg 94%
04:00 +5°C° 0 mm 3 mps 750 mmHg 94%
05:00 +7°C° 0 mm 3 mps 750 mmHg 93%
06:00 +7°C° 0 mm 2 mps 750 mmHg 93%
07:00 +8°C° 0 mm 2 mps 750 mmHg 86%
08:00 +10°C° 0 mm 2 mps 750 mmHg 79%
09:00 +12°C° 0 mm 2 mps 750 mmHg 72%
10:00 +13°C° 0.1 mm 1 mps 750 mmHg 69%
11:00 +14°C° 0.1 mm 1 mps 750 mmHg 65%
12:00 +14°C° 0.1 mm 1 mps 750 mmHg 62%
13:00 +14°C° 0.4 mm 2 mps 750 mmHg 66%
14:00 +14°C° 0.4 mm 2 mps 750 mmHg 70%
15:00 +13°C° 0.4 mm 2 mps 750 mmHg 74%
16:00 +12°C° 0.2 mm 3 mps 750 mmHg 77%
17:00 +11°C° 0.2 mm 3 mps 750 mmHg 80%
18:00 +11°C° 0.2 mm 3 mps 750 mmHg 84%
19:00 +10°C° 0.1 mm 3 mps 750 mmHg 87%
20:00 +9°C° 0.1 mm 3 mps 751 mmHg 90%
21:00 +8°C° 0.1 mm 3 mps 751 mmHg 93%
22:00 +8°C° 0.1 mm 3 mps 751 mmHg 93%
23:00 +8°C° 0.1 mm 2 mps 751 mmHg 94%
Show more